Main page
METAR-TAF:

METAR-TAF

Airports :

Francisco de Orellana Airport

Puerto Francisco de Orellana, Ecuador

latitude: 00-27-46S, longitude: 076-59-12W, elevation: 254 m

Current weather observation

The report was made 1 hour and 13 minutes ago, at 19:00 UTC
Wind 4 kt from the Southwest
Temperature 30°C
Humidity 59%
Pressure 1017 hPa
Visibility 10 km or more
Scattered clouds at a height of 2000 ft
Broken clouds at a height of 8000 ft

METAR: SECO 161900Z 22004KT 9999 SCT020 BKN080 30/21 Q1017 RMK A3004

Time: 15:13 (20:13 UTC)


TAF: missing

Weather observations and forecasts of more than 4000 airports (METAR and TAF reports).

The available stations are represented by yellow and red dots on the map.

Hover mouse over dot to see the name of the station.

Then click to see weather observations and forecasts.

To change the map : click on the green buttons with a black cross to zoom in, on the green button with a dash to zoom out, or on the green arrows for adjacent maps.


METAR-TAF: